Preview of NWS' New Version of Forecast
This preview is not operational and should not be used for support decisions.

Regional Weather Roundup (RWR)

Issued by National Weather Service (NWS)

                            
000
ASUS46 KSEW 172110
RWRWA 

WASHINGTON REGIONAL WEATHER ROUNDUP
NATIONAL WEATHER SERVICE SEATTLE WA
100 PM PST SUN FEB 17 2019

NOTE:"FAIR" INDICATES FEW OR NO CLOUDS BELOW 12,000 FEET WITH NO 
SIGNIFICANT WEATHER AND/OR OBSTRUCTIONS TO VISIBILITY.

WAZ507-509-555>559-172200-
SEATTLE, TACOMA, EVERETT, AND VICINITY
  
CITY           SKY/WX    TMP DP  RH WIND       PRES   REMARKS
EVERETT        PTSUNNY   41  33  73 N8        30.18S                  
BOEING FIELD   LGT RAIN  41  35  79 W5        30.20F                  
RENTON         CLOUDY    42  35  76 NW3       30.20S                  
SEATAC AIRPORT CLOUDY    41  34  76 N6        30.19S                  
JBLM-MCCHORD   NOT AVBL                                               
PUYALLUP       CLOUDY    39  37  93 CALM      30.19S                  
BREMERTON      PTSUNNY   40  35  83 NE7       30.19S                  
JBLM-FT LEWIS  PTSUNNY   38  38 100 CALM      30.20R                  
TACOMA NARROWS CLOUDY    37  35  92 CALM      30.20S                  
$$
 
WAZ001-503-506-510-514-515-172200-
NORTH INTERIOR
  
CITY           SKY/WX    TMP DP  RH WIND       PRES   REMARKS
BELLINGHAM     SUNNY     43  31  62 VRB7      30.20S                  
FRIDAY HARBOR  SUNNY     44  33  65 N10       30.23R                  
EASTSOUND      SUNNY     43  36  75 NW13      30.22S                  
PORT ANGELES   PTSUNNY   41  33  73 SE7       30.22S                  
EDIZ HOOK      FAIR      44  35  70 E3        30.23S                  
PORT TOWNSEND  FAIR      45  34  65 VRB6G17   30.20S                  
NAS WHIDBEY    PTSUNNY   48  34  58 NW15      30.25R                  
ARLINGTON      PTSUNNY   41  31  67 CALM      30.20S                  
BURLINGTON     SUNNY     45  32  61 NW10G16   30.20S                  
$$
 
WAZ020-022-039-040-504-511-512-172200-
SOUTHWEST INTERIOR
  
CITY           SKY/WX    TMP DP  RH WIND       PRES   REMARKS
SHELTON        CLOUDY    37  35  92 CALM      30.19S                  
OLYMPIA        CLOUDY    36  33  89 CALM      30.21S                  
CHEHALIS       PTSUNNY   43  36  75 CALM      30.21S                  
KELSO          CLOUDY    41  33  73 N8        30.22R                  
VANCOUVER      MOSUNNY   43  32  65 W9        30.20R                  
SCAPPOOSE, OR  CLOUDY    44  33  65 VRB3      30.20R                  
PORTLAND, OR   PTSUNNY   42  32  67 NW9       30.20R                  
$$
 
WAZ021-516-517-172200-
WASHINGTON COAST
  
CITY           SKY/WX    TMP DP  RH WIND       PRES   REMARKS
FORKS          MOSUNNY   47  30  51 VRB6      30.20S                  
HOQUIAM        MOSUNNY   43  38  82 E8        30.21R                  
ASTORIA, OR    SUNNY     43  36  76 N9        30.20R                  
$$
 
WAZ019-023-024-040-567>569-172200-
CASCADE MOUNTAINS AND COLUMBIA GORGE
  
CITY           SKY/WX    TMP DP  RH WIND       PRES   REMARKS
STAMPEDE PASS  FOG       27  24  89 VRB7      30.00R VSB 1/2          
TROUTDALE, OR  CLOUDY    42  33  70 VRB3      30.19S                  
HOOD RIVER, OR MOCLDY    41  30  65 W6        30.13F                  
THE DALLES, OR MOSUNNY   38  29  70 NE3       30.15S                  
$$

WAZ026-027-041>044-520-521-172200-
EAST SLOPES
  
CITY           SKY/WX    TMP DP  RH WIND       PRES   REMARKS
OMAK           CLOUDY    37  21  52 N16       30.12R                  
WENATCHEE      CLOUDY    33  25  72 CALM      30.10R                  
ELLENSBURG     CLOUDY    34  25  69 SE7       30.06R                  
YAKIMA         CLOUDY    37  27  67 CALM      30.09S                  
SUNNYSIDE ARPT CLOUDY    35  31  85 CALM      30.12R                  
YAKIMA TC      FAIR      36  26  68 CALM      30.06S                  
$$

WAZ028-034-035-172200-
COLUMBIA BASIN
  
CITY           SKY/WX    TMP DP  RH WIND       PRES   REMARKS
EPHRATA        CLOUDY    36  28  73 NE7       30.08R                  
MOSES LAKE     LGT SNOW  34  29  82 NE6       30.09R                  
PASCO          CLOUDY    36  31  82 SW7       30.14R                  
RICHLAND ARPT  CLOUDY    38  32  78 SW6       30.14                   
HERMISTON, OR  CLOUDY    35  31  85 SW5       30.12S                  
$$

WAZ036>038-172200-
NORTHEAST WASHINGTON
  
CITY           SKY/WX    TMP DP  RH WIND       PRES   REMARKS
SPOKANE GEIGER FLURRIES  27  17  66 E14       30.04R WCI  16          
SPOKANE FELTS  CLOUDY    30  17  58 E15       30.07R WCI  19          
FAIRCHILD AFB  LGT SNOW  26  26 100 NE12      30.02S WCI  16          
COEURDALENE,ID PTSUNNY   26  18  71 N23       30.06S WCI  11          
DEER PARK      CLOUDY    26  15  63 NE20      30.08R WCI  12          
$$

WAZ029>033-172200-
SOUTHEAST WASHINGTON
  
CITY           SKY/WX    TMP DP  RH WIND       PRES   REMARKS
PULLMAN        LGT SNOW  27  25  92 W7        30.02R FOG              
LEWISTON, ID   CLOUDY    35  28  75 W9        30.05R                  
WALLA WALLA    CLOUDY    34  29  82 S6        30.08S                  
PENDLETON, OR  CLOUDY    31  29  92 W9        30.07S FOG              
$$